User: anonymous   Login
Location: Unspecified
(0.0000°N, 0.0000°E)
Time: 09:26:32
(UTC+00:00)
Language:

PCSat - Orbit

View from above orbital plane
View from above orbital plane
View from above satellite
View from above satellite

Ground track
Ground track

The orbit data is extracted from the following two-line orbital elements,

1 26931U 01043C   19287.72532556 -.00000038  00000-0  17412-4 0  9992
2 26931  67.0518  59.0923 0007467 268.3383  91.6863 14.30555064941858
Epoch (UTC): 14 October 2019 17:24:28
Eccentricity: 0.0007467
inclination: 67.0518°
perigee height: 784 km
apogee height: 795 km
right ascension of ascending node: 59.0923°
argument of perigee: 268.3383°
revolutions per day: 14.30555064
mean anomaly at epoch: 91.6863°
orbit number at epoch: 94185

The dashed part of the orbit path shows where the satellite is in the earth's shadow,  

DLR